,,,PA_Meas_PMT16A,,PR_Meas_QMR101_102,,RH_Meas_QMH101,,SR_Meas_QMS101,,TA_Meas_QMH101,,GenWind,,GenWind,
date,time,status,PA,status,PR,status,RH,status,SR,status,TA,status,DirAvg,status,SpdAvg,
2011-09-12, 00:00:04,VALID,1000.63,VALID,0,VALID,89.3581,VALID,0,VALID,22.7079,VALID,117,VALID,0.901563,
2011-09-12, 00:01:04,VALID,1000.63,VALID,0,VALID,88.9766,VALID,0,VALID,22.7079,VALID,117,VALID,0.84375,
2011-09-12, 00:02:04,VALID,1000.65,VALID,0,VALID,88.7172,VALID,0,VALID,22.7079,VALID,95,VALID,1.16328,
2011-09-12, 00:03:04,VALID,1000.58,VALID,0,VALID,88.7706,VALID,0,VALID,22.6689,VALID,94,VALID,1.34414,
2011-09-12, 00:04:04,VALID,1000.57,VALID,0,VALID,89.0071,VALID,0,VALID,22.6494,VALID,94,VALID,1.00625,
2011-09-12, 00:05:04,VALID,1000.56,VALID,0,VALID,89.1368,VALID,0,VALID,22.6316,VALID,94,VALID,0.392188,
2011-09-12, 00:06:04,VALID,1000.56,VALID,0,VALID,89.1597,VALID,0,VALID,22.5909,VALID,94,VALID,0.228516,
2011-09-12, 00:07:04,VALID,1000.54,VALID,0,VALID,89.2437,VALID,0,VALID,22.5519,VALID,94,VALID,0.297266,
2011-09-12, 00:08:04,VALID,1000.54,VALID,0,VALID,89.4649,VALID,0,VALID,22.5323,VALID,94,VALID,0.623047,
2011-09-12, 00:09:04,VALID,1000.54,VALID,0,VALID,89.5641,VALID,0,VALID,22.4916,VALID,345,VALID,1.18984,
2011-09-12, 00:10:04,VALID,1000.53,VALID,0,VALID,89.526,VALID,0,VALID,22.4933,VALID,345,VALID,0.998438,
2011-09-12, 00:11:04,VALID,1000.47,VALID,0,VALID,89.6099,VALID,0,VALID,22.4721,VALID,345,VALID,1.06758,
2011-09-12, 00:12:04,VALID,1000.44,VALID,0,VALID,89.6862,VALID,0,VALID,22.4933,VALID,345,VALID,1.07266,
2011-09-12, 00:13:04,VALID,1000.47,VALID,0,VALID,89.6251,VALID,0,VALID,22.4916,VALID,345,VALID,0.492578,
2011-09-12, 00:14:04,VALID,1000.5,VALID,0,VALID,89.7777,VALID,0,VALID,22.5306,VALID,193,VALID,1.93047,
2011-09-12, 00:15:04,VALID,1000.46,VALID,0,VALID,89.4878,VALID,0,VALID,22.6672,VALID,189,VALID,0.417188,
2011-09-12, 00:16:04,VALID,1000.45,VALID,0,VALID,88.7783,VALID,0,VALID,22.7452,VALID,189,VALID,0.247266,
2011-09-12, 00:17:04,VALID,1000.42,VALID,0,VALID,88.3357,VALID,0,VALID,22.8037,VALID,189,VALID,0.455469,
2011-09-12, 00:18:04,VALID,1000.38,VALID,0,VALID,87.8551,VALID,0,VALID,22.864,VALID,345,VALID,1.34844,
2011-09-12, 00:19:04,VALID,1000.38,VALID,0,VALID,87.5499,VALID,0,VALID,22.8835,VALID,345,VALID,0.897266,
2011-09-12, 00:20:04,VALID,1000.39,VALID,0,VALID,87.4583,VALID,0,VALID,22.8427,VALID,345,VALID,0.203516,
2011-09-12, 00:21:04,VALID,1000.36,VALID,0,VALID,87.466,VALID,0,VALID,22.8445,VALID,345,VALID,0.247656,
2011-09-12, 00:22:04,VALID,1000.36,VALID,0,VALID,87.4736,VALID,0,VALID,22.825,VALID,345,VALID,0.233594,
2011-09-12, 00:23:04,VALID,1000.4,VALID,0,VALID,87.5117,VALID,0,VALID,22.8445,VALID,345,VALID,0.275781,
2011-09-12, 00:24:04,VALID,1000.37,VALID,0,VALID,87.3897,VALID,0,VALID,22.802,VALID,345,VALID,0.741406,
2011-09-12, 00:25:04,VALID,1000.4,VALID,0,VALID,87.0082,VALID,0,VALID,22.7842,VALID,88,VALID,1.84883,
2011-09-12, 00:26:04,VALID,1000.4,VALID,0,VALID,87.4049,VALID,0.112286,VALID,22.7452,VALID,99,VALID,1.42656,
2011-09-12, 00:27:04,VALID,1000.42,VALID,0,VALID,87.9848,VALID,0.112286,VALID,22.6655,VALID,114,VALID,1.79688,
2011-09-12, 00:28:04,VALID,1000.44,VALID,0,VALID,88.5799,VALID,0.112286,VALID,22.6069,VALID,113,VALID,0.924609,
2011-09-12, 00:29:04,VALID,1000.44,VALID,0,VALID,88.9995,VALID,0,VALID,22.5484,VALID,113,VALID,1.26914,
2011-09-12, 00:30:04,VALID,1000.46,VALID,0,VALID,89.3276,VALID,0.112286,VALID,22.4899,VALID,113,VALID,1.53711,
2011-09-12, 00:31:04,VALID,1000.4,VALID,0,VALID,89.6633,VALID,0.112286,VALID,22.4899,VALID,113,VALID,1.12227,
2011-09-12, 00:32:04,VALID,1000.4,VALID,0,VALID,89.8311,VALID,0,VALID,22.4916,VALID,113,VALID,0.894922,
2011-09-12, 00:33:04,VALID,1000.34,VALID,0,VALID,90.0143,VALID,0.112286,VALID,22.4704,VALID,113,VALID,0.982422,
2011-09-12, 00:34:04,VALID,1000.27,VALID,0,VALID,90.0753,VALID,0.112286,VALID,22.4509,VALID,57,VALID,1.26719,
2011-09-12, 00:35:04,VALID,1000.3,VALID,0,VALID,89.9151,VALID,0,VALID,22.4136,VALID,47,VALID,0.595703,
2011-09-12, 00:36:04,VALID,1000.31,VALID,0,VALID,89.7014,VALID,0.112286,VALID,22.3534,VALID,47,VALID,0.692187,
2011-09-12, 00:37:04,VALID,1000.36,VALID,0,VALID,89.6251,VALID,0.112286,VALID,22.2966,VALID,47,VALID,0.698438,
2011-09-12, 00:38:04,VALID,1000.31,VALID,0,VALID,89.7243,VALID,0.112286,VALID,22.199,VALID,74,VALID,0.796875,
2011-09-12, 00:39:04,VALID,1000.28,VALID,0,VALID,90.1592,VALID,0,VALID,22.1812,VALID,56,VALID,1.46133,
2011-09-12, 00:40:04,VALID,1000.25,VALID,0,VALID,90.2355,VALID,0,VALID,22.1227,VALID,16,VALID,1.11406,
2011-09-12, 00:41:04,VALID,1000.3,VALID,0,VALID,90.4186,VALID,0,VALID,22.1015,VALID,332,VALID,1.34023,
2011-09-12, 00:42:04,VALID,1000.31,VALID,0,VALID,90.5865,VALID,0,VALID,22.1795,VALID,332,VALID,0.746875,
2011-09-12, 00:43:04,VALID,1000.32,VALID,0,VALID,90.617,VALID,0,VALID,22.2186,VALID,274,VALID,0.683594,
2011-09-12, 00:44:04,VALID,1000.21,VALID,0,VALID,90.6017,VALID,0,VALID,22.2381,VALID,316,VALID,0.625781,
2011-09-12, 00:45:04,VALID,1000.18,VALID,0,VALID,90.5407,VALID,0,VALID,22.2771,VALID,15,VALID,1.60898,
2011-09-12, 00:46:04,VALID,1000.24,VALID,0,VALID,90.2813,VALID,0,VALID,22.3161,VALID,231,VALID,0.615234,
2011-09-12, 00:47:04,VALID,1000.2,VALID,0,VALID,90.0448,VALID,0,VALID,22.3373,VALID,231,VALID,0.182031,
2011-09-12, 00:48:04,VALID,1000.2,VALID,0,VALID,89.8922,VALID,0.112286,VALID,22.3763,VALID,231,VALID,0.0261719,
2011-09-12, 00:49:04,VALID,1000.19,VALID,0,VALID,89.8769,VALID,0,VALID,22.3958,VALID,231,VALID,0.410156,
2011-09-12, 00:50:04,VALID,1000.16,VALID,0,VALID,89.7396,VALID,0,VALID,22.3746,VALID,231,VALID,0.598828,
2011-09-12, 00:51:04,VALID,1000.17,VALID,0,VALID,89.6099,VALID,0,VALID,22.4348,VALID,359,VALID,0.132422,
2011-09-12, 00:52:04,VALID,1000.17,VALID,0,VALID,89.3047,VALID,0,VALID,22.4153,VALID,359,VALID,0,
2011-09-12, 00:53:04,VALID,1000.18,VALID,0,VALID,89.175,VALID,0,VALID,22.3958,VALID,359,VALID,0,
2011-09-12, 00:54:04,VALID,1000.18,VALID,0,VALID,89.0758,VALID,0,VALID,22.3551,VALID,359,VALID,0,
2011-09-12, 00:55:04,VALID,1000.16,VALID,0,VALID,89.2055,VALID,0,VALID,22.3373,VALID,359,VALID,0,
2011-09-12, 00:56:04,VALID,1000.15,VALID,0,VALID,89.381,VALID,0,VALID,22.2966,VALID,359,VALID,0.0339844,
2011-09-12, 00:57:04,VALID,1000.16,VALID,0,VALID,89.587,VALID,0,VALID,22.3161,VALID,359,VALID,0.802734,
2011-09-12, 00:58:05,VALID,1000.11,VALID,0,VALID,89.6786,VALID,0,VALID,22.3356,VALID,359,VALID,0.61875,
2011-09-12, 00:59:05,VALID,1000.06,VALID,0,VALID,89.5031,VALID,0,VALID,22.4136,VALID,359,VALID,0.715625,
2011-09-12, 01:00:05,VALID,1000.03,VALID,0,VALID,89.2055,VALID,0,VALID,22.4526,VALID,359,VALID,0.784766,
2011-09-12, 01:01:05,VALID,1000.07,VALID,0,VALID,88.9385,VALID,0,VALID,22.4721,VALID,359,VALID,0.471484,
2011-09-12, 01:02:05,VALID,1000.02,VALID,0,VALID,88.7935,VALID,0,VALID,22.4916,VALID,359,VALID,0.591406,
2011-09-12, 01:03:05,VALID,1000.04,VALID,0,VALID,88.8011,VALID,0,VALID,22.5323,VALID,359,VALID,0.35,
2011-09-12, 01:04:05,VALID,1000.03,VALID,0,VALID,88.6638,VALID,0,VALID,22.5306,VALID,359,VALID,0.453125,
2011-09-12, 01:05:05,VALID,1000.02,VALID,0,VALID,88.5189,VALID,0,VALID,22.4916,VALID,359,VALID,0.522266,
2011-09-12, 01:06:05,VALID,999.988,VALID,0,VALID,88.7249,VALID,0,VALID,22.4916,VALID,359,VALID,0.316406,
2011-09-12, 01:07:05,VALID,999.991,VALID,0,VALID,88.7249,VALID,0,VALID,22.5128,VALID,359,VALID,0.253125,
2011-09-12, 01:08:05,VALID,999.924,VALID,0,VALID,88.6486,VALID,0,VALID,22.4526,VALID,359,VALID,0.508203,
2011-09-12, 01:09:05,VALID,999.914,VALID,0,VALID,88.7172,VALID,0,VALID,22.4136,VALID,359,VALID,0.270703,
2011-09-12, 01:10:05,VALID,999.923,VALID,0,VALID,88.618,VALID,0,VALID,22.3958,VALID,359,VALID,0,
2011-09-12, 01:11:05,VALID,999.923,VALID,0,VALID,88.8088,VALID,0,VALID,22.3568,VALID,359,VALID,0.188281,
2011-09-12, 01:12:05,VALID,999.841,VALID,0,VALID,89.1063,VALID,0,VALID,22.3373,VALID,359,VALID,0.669141,
2011-09-12, 01:13:05,VALID,999.831,VALID,0,VALID,89.3734,VALID,0,VALID,22.3373,VALID,359,VALID,0.789453,
2011-09-12, 01:14:05,VALID,999.837,VALID,0,VALID,89.2589,VALID,0,VALID,22.2788,VALID,353,VALID,0.658984,
2011-09-12, 01:15:05,VALID,999.837,VALID,0,VALID,89.1445,VALID,0,VALID,22.1795,VALID,353,VALID,0.388281,
2011-09-12, 01:16:05,VALID,999.821,VALID,0,VALID,89.3276,VALID,0,VALID,22.1422,VALID,353,VALID,0.627734,
2011-09-12, 01:17:05,VALID,999.821,VALID,0,VALID,89.6175,VALID,0,VALID,22.082,VALID,353,VALID,0.728906,
2011-09-12, 01:18:05,VALID,999.823,VALID,0,VALID,89.9914,VALID,0,VALID,22.0625,VALID,353,VALID,0.58125,
2011-09-12, 01:19:05,VALID,999.834,VALID,0,VALID,90.2889,VALID,0,VALID,22.043,VALID,353,VALID,0.0519531,
2011-09-12, 01:20:05,VALID,999.806,VALID,0,VALID,90.4873,VALID,0,VALID,22.0625,VALID,353,VALID,0.345703,
2011-09-12, 01:21:05,VALID,999.813,VALID,0,VALID,90.5407,VALID,0,VALID,22.0625,VALID,353,VALID,0.0363281,
2011-09-12, 01:22:05,VALID,999.788,VALID,0,VALID,90.5865,VALID,0,VALID,22.0837,VALID,353,VALID,0.250391,
2011-09-12, 01:23:05,VALID,999.756,VALID,0,VALID,90.6094,VALID,0,VALID,22.043,VALID,353,VALID,0.180469,
2011-09-12, 01:24:05,VALID,999.744,VALID,0,VALID,90.6246,VALID,0,VALID,22.0447,VALID,353,VALID,0,
2011-09-12, 01:25:05,VALID,999.727,VALID,0,VALID,90.5026,VALID,0,VALID,22.0057,VALID,353,VALID,0.179688,
2011-09-12, 01:26:05,VALID,999.706,VALID,0,VALID,90.5331,VALID,0,VALID,21.965,VALID,353,VALID,0.372656,
2011-09-12, 01:27:05,VALID,999.699,VALID,0,VALID,90.8077,VALID,0,VALID,21.9455,VALID,353,VALID,0.504687,
2011-09-12, 01:28:05,VALID,999.707,VALID,0,VALID,91.0366,VALID,0,VALID,21.9667,VALID,353,VALID,0.482422,
2011-09-12, 01:29:05,VALID,999.672,VALID,0,VALID,91.0061,VALID,0,VALID,21.9667,VALID,353,VALID,0.422656,
2011-09-12, 01:30:05,VALID,999.654,VALID,0,VALID,90.9298,VALID,0,VALID,21.9862,VALID,353,VALID,0.425,
2011-09-12, 01:31:05,VALID,999.653,VALID,0,VALID,90.8688,VALID,0,VALID,21.9845,VALID,353,VALID,0.423828,
2011-09-12, 01:32:05,VALID,999.641,VALID,0,VALID,90.8077,VALID,0,VALID,22.0252,VALID,353,VALID,0.214844,
2011-09-12, 01:33:05,VALID,999.599,VALID,0,VALID,90.7925,VALID,0,VALID,22.0235,VALID,353,VALID,0.448438,
2011-09-12, 01:34:05,VALID,999.565,VALID,0,VALID,90.7543,VALID,0,VALID,22.043,VALID,353,VALID,0.434766,
2011-09-12, 01:35:05,VALID,999.607,VALID,0,VALID,90.7162,VALID,0,VALID,22.0837,VALID,353,VALID,0.331641,
2011-09-12, 01:36:05,VALID,999.542,VALID,0,VALID,90.556,VALID,0,VALID,22.0235,VALID,353,VALID,0.554688,
2011-09-12, 01:37:05,VALID,999.509,VALID,0,VALID,90.6399,VALID,0,VALID,22.0235,VALID,359,VALID,0.817187,
2011-09-12, 01:38:05,VALID,999.47,VALID,0,VALID,90.6094,VALID,0,VALID,22.0235,VALID,359,VALID,0.910547,
2011-09-12, 01:39:05,VALID,999.477,VALID,0,VALID,90.6399,VALID,0,VALID,22.0447,VALID,359,VALID,0.603516,
2011-09-12, 01:40:05,VALID,999.512,VALID,0,VALID,90.472,VALID,0,VALID,22.0057,VALID,359,VALID,0.438672,
2011-09-12, 01:41:05,VALID,999.477,VALID,0,VALID,90.3728,VALID,0,VALID,21.926,VALID,93,VALID,0.9125,
2011-09-12, 01:42:05,VALID,999.404,VALID,0,VALID,90.4873,VALID,0,VALID,21.8887,VALID,92,VALID,0.616406,
2011-09-12, 01:43:05,VALID,999.392,VALID,0,VALID,90.5636,VALID,0,VALID,21.7505,VALID,29,VALID,0.901953,
2011-09-12, 01:44:05,VALID,999.392,VALID,0,VALID,90.8993,VALID,0,VALID,21.731,VALID,359,VALID,1.14922,
2011-09-12, 01:45:05,VALID,999.445,VALID,0,VALID,91.1587,VALID,0,VALID,21.7131,VALID,359,VALID,0.712891,
2011-09-12, 01:46:05,VALID,999.449,VALID,0,VALID,91.3037,VALID,0,VALID,21.6741,VALID,12,VALID,0.957031,
2011-09-12, 01:47:05,VALID,999.437,VALID,0,VALID,91.4181,VALID,0,VALID,21.614,VALID,19,VALID,0.714844,
2011-09-12, 01:48:05,VALID,999.45,VALID,0,VALID,91.5249,VALID,0,VALID,21.5961,VALID,46,VALID,0.817969,
2011-09-12, 01:49:05,VALID,999.448,VALID,0,VALID,91.7767,VALID,0,VALID,21.6156,VALID,45,VALID,1.14531,
2011-09-12, 01:50:05,VALID,999.409,VALID,0,VALID,92.0209,VALID,0,VALID,21.614,VALID,18,VALID,1.29297,
2011-09-12, 01:51:05,VALID,999.39,VALID,0,VALID,92.1811,VALID,0,VALID,21.6351,VALID,18,VALID,1.37578,
2011-09-12, 01:52:05,VALID,999.408,VALID,0,VALID,92.2421,VALID,0,VALID,21.5945,VALID,18,VALID,0.722656,
2011-09-12, 01:53:05,VALID,999.405,VALID,0,VALID,92.3566,VALID,0,VALID,21.5945,VALID,3,VALID,0.966797,
2011-09-12, 01:54:05,VALID,999.441,VALID,0,VALID,92.3947,VALID,0,VALID,21.5961,VALID,3,VALID,0.352734,
2011-09-12, 01:55:05,VALID,999.388,VALID,0,VALID,92.41,VALID,0,VALID,21.5766,VALID,3,VALID,0.625,
2011-09-12, 01:56:05,VALID,999.358,VALID,0,VALID,92.471,VALID,0,VALID,21.5766,VALID,3,VALID,0.767578,
2011-09-12, 01:57:05,VALID,999.333,VALID,0,VALID,92.5168,VALID,0,VALID,21.5555,VALID,3,VALID,1.23164,
2011-09-12, 01:58:05,VALID,999.294,VALID,0,VALID,92.6236,VALID,0,VALID,21.5961,VALID,15,VALID,1.66953,
2011-09-12, 01:59:05,VALID,999.308,VALID,0,VALID,92.6465,VALID,0,VALID,21.6156,VALID,20,VALID,1.79219,
2011-09-12, 02:00:05,VALID,999.323,VALID,0,VALID,92.6083,VALID,0,VALID,21.6156,VALID,20,VALID,1.06211,
2011-09-12, 02:01:05,VALID,999.339,VALID,0,VALID,92.5091,VALID,0,VALID,21.5961,VALID,20,VALID,0.775391,
2011-09-12, 02:02:05,VALID,999.308,VALID,0,VALID,92.4023,VALID,0,VALID,21.5766,VALID,20,VALID,0.571484,
2011-09-12, 02:03:05,VALID,999.262,VALID,0,VALID,92.3337,VALID,0,VALID,21.5766,VALID,339,VALID,0.964453,
2011-09-12, 02:04:05,VALID,999.308,VALID,0,VALID,92.2803,VALID,0,VALID,21.6156,VALID,339,VALID,0.392969,
2011-09-12, 02:05:05,VALID,999.289,VALID,0,VALID,92.2421,VALID,0,VALID,21.5945,VALID,339,VALID,0.766797,
2011-09-12, 02:06:05,VALID,999.232,VALID,0,VALID,92.2726,VALID,0,VALID,21.653,VALID,339,VALID,0.735547,
2011-09-12, 02:07:05,VALID,999.244,VALID,0,VALID,92.2421,VALID,0,VALID,21.6936,VALID,339,VALID,0.797656,
2011-09-12, 02:08:05,VALID,999.218,VALID,0,VALID,92.0819,VALID,0,VALID,21.6936,VALID,339,VALID,0.795703,
2011-09-12, 02:09:05,VALID,999.22,VALID,0,VALID,91.998,VALID,0,VALID,21.692,VALID,2,VALID,0.776563,
2011-09-12, 02:10:05,VALID,999.219,VALID,0,VALID,91.8759,VALID,0,VALID,21.692,VALID,27,VALID,0.80625,
2011-09-12, 02:11:05,VALID,999.187,VALID,0,VALID,91.7996,VALID,0,VALID,21.7131,VALID,27,VALID,0.714453,
2011-09-12, 02:12:05,VALID,999.171,VALID,0,VALID,91.7309,VALID,0,VALID,21.7131,VALID,27,VALID,0.177344,
2011-09-12, 02:13:05,VALID,999.107,VALID,0,VALID,91.7538,VALID,0,VALID,21.6936,VALID,27,VALID,0.799219,
2011-09-12, 02:14:05,VALID,999.069,VALID,0,VALID,91.8988,VALID,0,VALID,21.7131,VALID,27,VALID,1.16562,
2011-09-12, 02:15:05,VALID,999.112,VALID,0,VALID,91.9064,VALID,0,VALID,21.6936,VALID,27,VALID,0.882031,
2011-09-12, 02:16:05,VALID,999.094,VALID,0,VALID,91.9217,VALID,0,VALID,21.6741,VALID,88,VALID,0.926172,
2011-09-12, 02:17:05,VALID,999.065,VALID,0,VALID,92.0056,VALID,0,VALID,21.6936,VALID,84,VALID,1.04805,
2011-09-12, 02:18:05,VALID,999.054,VALID,0,VALID,91.9903,VALID,0,VALID,21.6725,VALID,77,VALID,0.904688,
2011-09-12, 02:19:05,VALID,999.058,VALID,0,VALID,91.8606,VALID,0,VALID,21.6335,VALID,77,VALID,0.194531,
2011-09-12, 02:20:05,VALID,999.079,VALID,0,VALID,91.7157,VALID,0,VALID,21.6156,VALID,77,VALID,0.0015625,
2011-09-12, 02:21:05,VALID,999.048,VALID,0,VALID,91.6699,VALID,0,VALID,21.5766,VALID,77,VALID,0,
2011-09-12, 02:22:05,VALID,999.07,VALID,0,VALID,91.7157,VALID,0,VALID,21.5571,VALID,77,VALID,0.108594,
2011-09-12, 02:23:05,VALID,999.046,VALID,0,VALID,91.8301,VALID,0,VALID,21.5555,VALID,77,VALID,0.559766,
2011-09-12, 02:24:05,VALID,999.038,VALID,0,VALID,91.9217,VALID,0,VALID,21.5376,VALID,26,VALID,1.05273,
2011-09-12, 02:25:05,VALID,999.051,VALID,0,VALID,91.9369,VALID,0,VALID,21.4986,VALID,26,VALID,0.818359,
2011-09-12, 02:26:05,VALID,999.1,VALID,0,VALID,91.9369,VALID,0,VALID,21.4596,VALID,26,VALID,0.408594,
2011-09-12, 02:27:05,VALID,999.097,VALID,0,VALID,92.0285,VALID,0,VALID,21.4206,VALID,96,VALID,0.5875,
2011-09-12, 02:28:05,VALID,999.026,VALID,0,VALID,92.1811,VALID,0,VALID,21.4385,VALID,96,VALID,0.533594,
2011-09-12, 02:29:05,VALID,998.971,VALID,0,VALID,92.2879,VALID,0,VALID,21.4401,VALID,4,VALID,1.4957,
2011-09-12, 02:30:05,VALID,999.027,VALID,0,VALID,92.3794,VALID,0,VALID,21.4596,VALID,1,VALID,0.922266,
2011-09-12, 02:31:05,VALID,999.056,VALID,0,VALID,92.3718,VALID,0,VALID,21.4011,VALID,1,VALID,0.239063,
2011-09-12, 02:32:05,VALID,999.04,VALID,0,VALID,92.3947,VALID,0,VALID,21.3605,VALID,1,VALID,0.537891,
2011-09-12, 02:33:05,VALID,999.052,VALID,0,VALID,92.5091,VALID,0,VALID,21.4401,VALID,1,VALID,0.531641,
2011-09-12, 02:34:05,VALID,999.104,VALID,0,VALID,92.6083,VALID,0,VALID,21.4596,VALID,1,VALID,0.487109,
2011-09-12, 02:35:05,VALID,999.096,VALID,0,VALID,92.6923,VALID,0,VALID,21.4596,VALID,1,VALID,0.206641,
2011-09-12, 02:36:05,VALID,998.969,VALID,0,VALID,92.7533,VALID,0,VALID,21.4775,VALID,1,VALID,1.24258,
2011-09-12, 02:37:05,VALID,998.981,VALID,0,VALID,92.8143,VALID,0,VALID,21.5181,VALID,1,VALID,1.75117,
2011-09-12, 02:38:05,VALID,999.03,VALID,0,VALID,92.8372,VALID,0,VALID,21.536,VALID,1,VALID,1.29453,
2011-09-12, 02:39:05,VALID,999.07,VALID,0,VALID,92.8372,VALID,0,VALID,21.5571,VALID,1,VALID,0.690625,
2011-09-12, 02:40:05,VALID,999.074,VALID,0,VALID,92.822,VALID,0,VALID,21.5766,VALID,1,VALID,0.170703,
2011-09-12, 02:41:05,VALID,999.078,VALID,0,VALID,92.822,VALID,0,VALID,21.575,VALID,1,VALID,0.350781,
2011-09-12, 02:42:05,VALID,999.038,VALID,0,VALID,92.8296,VALID,0,VALID,21.6156,VALID,1,VALID,0.630078,
2011-09-12, 02:43:05,VALID,999.025,VALID,0,VALID,92.7838,VALID,0,VALID,21.5945,VALID,1,VALID,0.873047,
2011-09-12, 02:44:05,VALID,999.034,VALID,0,VALID,92.7533,VALID,0,VALID,21.5945,VALID,1,VALID,0.661328,
2011-09-12, 02:45:05,VALID,999.039,VALID,0,VALID,92.6923,VALID,0,VALID,21.6351,VALID,1,VALID,0.533984,
2011-09-12, 02:46:05,VALID,999.063,VALID,0,VALID,92.6007,VALID,0,VALID,21.6546,VALID,1,VALID,0.283594,
2011-09-12, 02:47:05,VALID,999.078,VALID,0,VALID,92.532,VALID,0,VALID,21.6546,VALID,1,VALID,0.0902344,
2011-09-12, 02:48:05,VALID,999.055,VALID,0,VALID,92.4405,VALID,0,VALID,21.6335,VALID,1,VALID,0.162109,
2011-09-12, 02:49:05,VALID,999.072,VALID,0,VALID,92.41,VALID,0,VALID,21.6546,VALID,1,VALID,0.124609,
2011-09-12, 02:50:05,VALID,999.152,VALID,0,VALID,92.3337,VALID,0,VALID,21.6156,VALID,1,VALID,0.709766,
2011-09-12, 02:51:05,VALID,999.084,VALID,0,VALID,92.2726,VALID,0,VALID,21.575,VALID,1,VALID,0.0425781,
2011-09-12, 02:52:05,VALID,999.049,VALID,0,VALID,92.265,VALID,0,VALID,21.5961,VALID,1,VALID,0,
2011-09-12, 02:53:05,VALID,999.063,VALID,0,VALID,92.204,VALID,0,VALID,21.5961,VALID,1,VALID,0,
2011-09-12, 02:54:05,VALID,999.077,VALID,0,VALID,92.1353,VALID,0,VALID,21.5571,VALID,1,VALID,0,
2011-09-12, 02:55:05,VALID,999.045,VALID,0,VALID,92.0895,VALID,0,VALID,21.5571,VALID,1,VALID,0.397656,
2011-09-12, 02:56:05,VALID,998.99,VALID,0,VALID,91.9827,VALID,0,VALID,21.5376,VALID,1,VALID,0.618359,
2011-09-12, 02:57:05,VALID,999.043,VALID,0,VALID,91.9369,VALID,0,VALID,21.5571,VALID,1,VALID,0.232422,
2011-09-12, 02:58:05,VALID,999.116,VALID,0,VALID,91.9064,VALID,0,VALID,21.5376,VALID,51,VALID,0.869141,
2011-09-12, 02:59:05,VALID,999.039,VALID,0,VALID,91.8988,VALID,0,VALID,21.5766,VALID,132,VALID,1.13672,
2011-09-12, 03:00:05,VALID,999.025,VALID,0,VALID,91.7233,VALID,0,VALID,21.6936,VALID,129,VALID,0.907031,
2011-09-12, 03:01:05,VALID,999.032,VALID,0,VALID,91.3266,VALID,0,VALID,21.8301,VALID,129,VALID,1.19258,
2011-09-12, 03:02:05,VALID,998.994,VALID,0,VALID,90.7314,VALID,0,VALID,21.9667,VALID,115,VALID,0.676953,
2011-09-12, 03:03:05,VALID,999.027,VALID,0,VALID,90.0753,VALID,0,VALID,22.0447,VALID,115,VALID,0.180859,
2011-09-12, 03:04:05,VALID,999.038,VALID,0,VALID,89.4573,VALID,0,VALID,22.0625,VALID,116,VALID,0.389062,
2011-09-12, 03:05:05,VALID,999.042,VALID,0,VALID,89.175,VALID,0,VALID,22.0837,VALID,115,VALID,0.469141,
2011-09-12, 03:06:05,VALID,999.116,VALID,0,VALID,88.8011,VALID,0,VALID,22.0447,VALID,115,VALID,0.417969,
2011-09-12, 03:07:05,VALID,999.201,VALID,0,VALID,88.7172,VALID,0,VALID,21.9082,VALID,115,VALID,0.225,
2011-09-12, 03:08:05,VALID,999.18,VALID,0,VALID,89.03,VALID,0,VALID,21.8496,VALID,116,VALID,0.0683594,
2011-09-12, 03:09:05,VALID,999.111,VALID,0,VALID,89.4344,VALID,0,VALID,21.7911,VALID,52,VALID,1.15664,
2011-09-12, 03:10:05,VALID,999.115,VALID,0,VALID,89.4344,VALID,0,VALID,21.6936,VALID,42,VALID,1.86875,
2011-09-12, 03:11:05,VALID,999.058,VALID,0,VALID,89.8693,VALID,0,VALID,21.6546,VALID,47,VALID,2.11602,
2011-09-12, 03:12:05,VALID,999.16,VALID,0,VALID,90.2203,VALID,0,VALID,21.6741,VALID,41,VALID,1.87266,
2011-09-12, 03:13:05,VALID,999.215,VALID,0,VALID,90.2966,VALID,0,VALID,21.6741,VALID,48,VALID,0.541016,
2011-09-12, 03:14:05,VALID,999.191,VALID,0,VALID,90.3042,VALID,0,VALID,21.6546,VALID,48,VALID,0.578125,
2011-09-12, 03:15:05,VALID,999.236,VALID,0,VALID,90.411,VALID,0,VALID,21.6546,VALID,27,VALID,0.590234,
2011-09-12, 03:16:05,VALID,999.232,VALID,0,VALID,90.5941,VALID,0,VALID,21.6741,VALID,27,VALID,0.269922,
2011-09-12, 03:17:05,VALID,999.181,VALID,0,VALID,90.6475,VALID,0,VALID,21.6936,VALID,27,VALID,1.07813,
2011-09-12, 03:18:05,VALID,999.182,VALID,0,VALID,90.5102,VALID,0,VALID,21.6725,VALID,31,VALID,1.54414,
2011-09-12, 03:19:05,VALID,999.222,VALID,0,VALID,90.472,VALID,0,VALID,21.6725,VALID,41,VALID,1.22578,
2011-09-12, 03:20:05,VALID,999.261,VALID,0,VALID,90.5254,VALID,0,VALID,21.7115,VALID,42,VALID,0.508594,
2011-09-12, 03:21:05,VALID,999.283,VALID,0,VALID,90.2966,VALID,0,VALID,21.7115,VALID,293,VALID,0.875391,
2011-09-12, 03:22:05,VALID,999.327,VALID,0,VALID,90.4644,VALID,0,VALID,21.77,VALID,229,VALID,1.23281,
2011-09-12, 03:23:05,VALID,999.325,VALID,0,VALID,90.4186,VALID,0,VALID,21.9082,VALID,225,VALID,1.23242,
2011-09-12, 03:24:05,VALID,999.32,VALID,0,VALID,89.938,VALID,0,VALID,22.0252,VALID,225,VALID,0.230078,
2011-09-12, 03:25:05,VALID,999.302,VALID,0,VALID,89.3963,VALID,0,VALID,22.0837,VALID,225,VALID,0.503906,
2011-09-12, 03:26:05,VALID,999.331,VALID,0,VALID,88.7249,VALID,0,VALID,22.1032,VALID,121,VALID,0.94375,
2011-09-12, 03:27:05,VALID,999.28,VALID,0,VALID,87.5575,VALID,0,VALID,22.2202,VALID,91,VALID,0.869922,
2011-09-12, 03:28:05,VALID,999.293,VALID,0,VALID,85.5204,VALID,0,VALID,22.3551,VALID,79,VALID,0.817969,
2011-09-12, 03:29:05,VALID,999.27,VALID,0,VALID,85.4212,VALID,0,VALID,22.5519,VALID,77,VALID,1.36836,
2011-09-12, 03:30:05,VALID,999.295,VALID,0,VALID,84.231,VALID,0,VALID,22.6104,VALID,78,VALID,1.06641,
2011-09-12, 03:31:05,VALID,999.354,VALID,0,VALID,84.1776,VALID,0,VALID,22.6689,VALID,107,VALID,1.01758,
2011-09-12, 03:32:05,VALID,999.404,VALID,0,VALID,84.2005,VALID,0,VALID,22.6087,VALID,154,VALID,0.917188,
2011-09-12, 03:33:05,VALID,999.358,VALID,0,VALID,84.4217,VALID,0,VALID,22.6689,VALID,166,VALID,0.628906,
2011-09-12, 03:34:05,VALID,999.378,VALID,0,VALID,84.6964,VALID,0,VALID,22.6884,VALID,166,VALID,0.785937,
2011-09-12, 03:35:05,VALID,999.393,VALID,0,VALID,84.6735,VALID,0,VALID,22.6884,VALID,205,VALID,1.22227,
2011-09-12, 03:36:05,VALID,999.396,VALID,0,VALID,84.4828,VALID,0,VALID,22.7079,VALID,195,VALID,1.09844,
2011-09-12, 03:37:05,VALID,999.35,VALID,0,VALID,83.7274,VALID,0,VALID,22.7274,VALID,136,VALID,0.873828,
2011-09-12, 03:38:05,VALID,999.303,VALID,0,VALID,83.552,VALID,0,VALID,22.7469,VALID,78,VALID,1.95703,
2011-09-12, 03:39:05,VALID,999.322,VALID,0,VALID,83.8572,VALID,0,VALID,22.7452,VALID,77,VALID,2.37383,
2011-09-12, 03:40:05,VALID,999.375,VALID,0,VALID,84.7574,VALID,0,VALID,22.6477,VALID,78,VALID,1.53789,
2011-09-12, 03:41:05,VALID,999.353,VALID,0,VALID,85.6883,VALID,0,VALID,22.5128,VALID,73,VALID,1.65078,
2011-09-12, 03:42:05,VALID,999.397,VALID,0,VALID,86.4283,VALID,0,VALID,22.3763,VALID,60,VALID,1.06719,
2011-09-12, 03:43:05,VALID,999.449,VALID,0,VALID,86.8403,VALID,0,VALID,22.2788,VALID,66,VALID,0.566016,
2011-09-12, 03:44:04,VALID,999.427,VALID,0,VALID,87.2905,VALID,0,VALID,22.1812,VALID,105,VALID,0.492188,
2011-09-12, 03:45:04,VALID,999.295,VALID,0,VALID,87.6567,VALID,0,VALID,22.1227,VALID,352,VALID,1.11484,
2011-09-12, 03:46:04,VALID,999.328,VALID,0,VALID,87.8246,VALID,0,VALID,22.0642,VALID,336,VALID,0.520703,